Location: Bogis-Bossey
(46.3500°N, 6.1667°E)
Time: 17:22:18
(UTC+00:00)

Spot 2 Rocket - Pass Details

Date: 17 August 2022
Orbit: 756 x 772 km, 98.5° (Epoch: 30 September)

Event Time Altitude Azimuth Distance (km) Brightness Sun altitude
Exits shadow 20:32:13 30° 130° (SE) 1,357 4.2 -17.1°
Maximum altitude 20:34:29 52° 70° (ENE) 948 3.8 -17.4°
Drops below altitude 10° 20:39:25 10° 355° (N) 2,310 6.7 -18.1°
Sets 20:41:46 0° 351° (N) 3,238 7.6 -18.3°
